Location: Mangahuka
(40.9167°S, 175.3667°E)
Time: 14:42:40
(UTC+00:00)

Daily predictions for brighter satellites

Satellite Brightness Start Highest point End
(mag) Time Altitude Azimuth Time Altitude Azimuth Time Altitude Azimuth
USA 59 Rocket 4.0 14:17:31 14° SE 14:17:31 14° SE 14:19:19 10° SE
USA 59 Rocket 2.9 16:04:05 31° S 16:06:30 35° SSE 16:13:43 10° E
USA 215 3.1 16:45:37 10° NE 16:52:11 87° NW 16:52:16 87° W
Cosmos 2369 Rocket 3.4 17:08:48 29° N 17:08:48 29° N 17:11:38 10° N
Cosmos 1818 3.7 17:07:28 61° NNE 17:08:13 70° ENE 17:13:36 10° SE
SL-8 R/B 4.1 17:09:09 63° E 17:09:09 63° E 17:13:16 10° ENE
ATLAS 5 CENTAUR R/B 4.4 17:13:17 13° NW 17:16:08 14° NNW 17:19:32 10° N
NOAA 9 4.5 17:12:51 10° N 17:18:17 76° WNW 17:18:22 76° W
Lacrosse 5 rocket 3.3 17:18:56 18° SE 17:18:56 18° SE 17:21:10 10° ESE
Cosmos 1809 Rocket 4.3 17:19:38 10° NNW 17:25:48 73° W 17:32:05 10° S
Meteor 2-2 Rocket 4.1 17:20:36 10° NNW 17:26:22 78° W 17:32:20 10° S
Cosmos 1603 3.5 17:26:49 59° WNW 17:27:38 68° WSW 17:33:18 10° SSE
Lacrosse 4 Rocket 2.1 17:27:21 44° SSE 17:28:01 49° ESE 17:31:59 10° NE
DMSP B5D2-2 4.3 17:24:45 10° S 17:34:42 12° NNW 17:35:09 10° NNW
Cosmos 1331 Rocket 4.1 17:29:34 32° S 17:32:08 74° ESE 17:37:26 10° NNE
Spot 4 Rocket 3.9 17:27:06 10° NNE 17:32:16 80° WNW 17:34:13 40° SSW
BREEZE-M DEB (TANK) 3.8 17:35:04 32° SSW 17:35:47 34° S 17:44:17 10° ESE
Cosmos 1452 Rocket 3.4 17:33:59 36° SSW 17:36:15 88° ESE 17:41:32 10° NNE
Cosmos 1943 4.1 17:38:50 31° SSW 17:38:50 31° SSW 17:42:28 10° S
PSLV R/B 3.4 17:34:08 10° N 17:38:26 74° WNW 17:38:45 70° WSW
Cosmos 2346 Rocket 4.5 17:32:47 10° NNW 17:38:49 56° W 17:45:00 10° S
Cosmos 1048 Rocket 4.2 17:40:10 49° WSW 17:40:10 49° WSW 17:45:19 10° S
USA 40 PKM 4.4 17:46:15 58° WNW 17:46:35 62° NW 17:51:49 10° NNE
Tiangong -1.8 17:47:28 67° E 17:47:28 67° E 17:50:18 10° E
Cosmos 2034 Rocket 4.2 17:48:32 10° S 17:54:48 71° E 18:00:57 10° NNE
ATLAS CENTAUR R/B 2.3 17:57:10 26° SE 17:57:10 26° SE 17:59:24 10° ENE
Cosmos 1743 3.1 17:54:16 13° S 17:57:29 58° E 18:01:05 10° NNE
USA 59 Rocket 1.5 17:50:39 19° SW 17:57:52 78° WNW 18:04:47 10° NNE
DELTA 2 R/B (1) 3.8 17:57:58 32° W 18:00:25 59° NNW 18:05:53 10° ENE
Cosmos 1110 Rocket 4.1 17:58:38 29° SW 18:01:10 55° WNW 18:06:17 10° N
Radarsat 4.5 17:59:35 10° N 18:04:47 74° WNW 18:10:04 10° SSW
Meteor 1-26 Rocket 4.3 18:04:34 10° NNW 18:10:00 55° WSW 18:15:42 10° S
Cosmos 2221 2.4 18:06:39 10° NNW 18:10:51 61° W 18:15:09 10° S
Cosmos 220 Rocket 3.9 18:07:06 10° NNW 18:11:18 88° ENE 18:15:36 10° SSE
CZ-2C R/B 2.7 18:08:42 10° NNE 18:12:28 81° ESE 18:16:18 10° S
Cosmos 1833 Rocket 4.4 18:08:58 10° N 18:14:05 37° ENE 18:19:15 10° SE
SL-4 R/B 2.3 18:14:38 10° NW 18:18:56 68° NE 18:23:02 10° ESE
ADEOS Rocket 3.3 18:14:40 10° NNE 18:20:25 62° ESE 18:25:55 10° S
CZ-4B R/B 3.9 18:18:00 10° NNE 18:22:04 87° WNW 18:26:21 10° SSW
Aureole 3 Rocket 3.0 18:21:15 10° S 18:26:32 83° W 18:30:20 10° N
Okean 3 Rocket 4.1 18:22:07 10° S 18:26:42 65° E 18:31:10 10° NNE
SMAP 3.7 18:25:31 10° NNW 18:29:46 34° W 18:33:49 11° SSW
YAOGAN 1 3.8 18:32:37 10° NE 18:36:41 42° ESE 18:40:49 10° S
Tsikada Rocket 4.0 18:30:48 10° NNW 18:37:03 71° W 18:43:19 10° S
YAOGAN 11 4.3 18:33:01 10° S 18:37:27 52° WSW 18:41:45 10° NNW
COSMO-SKYMED 1 2.5 18:35:45 10° S 18:40:11 73° WSW 18:44:32 10° NNW
USA 32 4.3 18:35:34 10° N 18:40:48 74° E 18:46:06 10° S
Meteor 1-31 Rocket 3.1 18:41:33 10° N 18:45:10 42° W 18:48:50 10° SSW
Cosmos 1536 3.2 18:41:19 10° S 18:45:12 63° E 18:49:02 10° NNE
NOSS 3-4 (C) 4.3 18:41:40 10° SSW 18:48:36 50° SE 18:54:35 10° ENE
NOSS 3-4 (A) 4.3 18:41:45 10° SSW 18:48:42 51° SE 18:54:38 10° ENE
Cosmos 614 Rocket 4.1 18:43:53 10° NW 18:48:49 51° WSW 18:53:49 10° S
Cosmos 1842 Rocket 3.7 18:46:20 10° NNW 18:50:43 57° W 18:55:12 10° S
Cosmos 44 Rocket 3.5 18:49:09 10° SW 18:54:06 63° WNW 18:59:08 10° NNE
Lacrosse 5 rocket 1.1 18:53:46 11° SW 18:57:09 63° NW 19:00:47 10° NNE
IGS 5A 3.6 18:53:31 10° N 18:57:33 55° W 19:01:38 10° SSW
Okean 1 3.2 18:53:47 10° N 18:57:36 86° W 19:01:29 10° S
Meteor 1-11 Rocket 3.8 18:53:43 10° S 18:59:24 83° E 19:04:57 10° N
Cosmos 1656 3.7 18:54:11 10° SSW 18:59:48 69° WNW 19:05:16 10° NNE
Helios 1B rocket 3.2 19:00:23 10° NNW 19:03:54 31° W 19:07:29 10° SW
Cosmos 1992 Rocket 4.0 18:59:06 10° SSW 19:04:23 75° WNW 19:09:37 10° N
Cosmos 1634 Rocket 4.1 18:58:28 10° SSW 19:04:47 65° W 19:11:03 10° N
PKM 4.2 19:02:27 10° SW 19:05:37 89° NW 19:11:58 10° NE
Lacrosse 4 Rocket 3.2 19:03:37 10° WSW 19:05:49 14° WNW 19:07:59 10° NW
Cosmos 1607 4.0 19:00:37 10° NW 19:06:34 55° SW 19:12:34 10° SSE
Cosmos 1726 2.8 19:08:36 10° SW 19:11:17 25° W 19:13:55 10° NNW
CBERS 1 LM4 rocket 4.3 19:07:07 10° N 19:11:53 77° W 19:16:41 10° SSW
Cosmos 1340 Rocket 2.8 19:08:08 10° NNW 19:11:59 63° W 19:15:57 10° S
Atlas Centaur 2 3.9 19:11:30 10° NNW 19:14:01 16° N 19:16:20 10° NE
CZ-4 R/B 3.0 19:11:55 10° NE 19:15:28 34° ESE 19:19:00 10° S
CZ-4B R/B 3.5 19:11:32 10° NNE 19:16:32 84° WNW 19:21:27 10° SSW
